When you browse on this site, cookies collect data to enhance your experience and personalize the content and advertising you see.
Visit our Privacy Policy to learn more. By continuing to use the site, you agree to this use of cookies and data.

Meteo orario Roma

Oggi, 6 Agosto, Giovedi

Tempo Temperatura Precipitazioni Vento Pressione Umidità
00:00 +23°C° 0 mm 2 m/s 755 mm Hg 61%
01:00 +21°C° 0 mm 2 m/s 756 mm Hg 63%
02:00 +21°C° 0 mm 2 m/s 756 mm Hg 65%
03:00 +20°C° 0 mm 2 m/s 756 mm Hg 67%
04:00 +20°C° 0 mm 3 m/s 756 mm Hg 69%
05:00 +21°C° 0 mm 2 m/s 756 mm Hg 65%
06:00 +23°C° 0 mm 2 m/s 756 mm Hg 62%
07:00 +24°C° 0 mm 3 m/s 756 mm Hg 60%
08:00 +26°C° 0 mm 2 m/s 757 mm Hg 53%
09:00 +29°C° 0 mm 2 m/s 757 mm Hg 45%
10:00 +31°C° 0 mm 1 m/s 757 mm Hg 38%
11:00 +32°C° 0 mm 2 m/s 757 mm Hg 36%
12:00 +34°C° 0 mm 3 m/s 757 mm Hg 35%
13:00 +35°C° 0 mm 3 m/s 756 mm Hg 34%
14:00 +34°C° 0 mm 4 m/s 756 mm Hg 37%
15:00 +34°C° 0 mm 4 m/s 756 mm Hg 39%
16:00 +33°C° 0 mm 4 m/s 756 mm Hg 42%
17:00 +32°C° 0 mm 4 m/s 756 mm Hg 46%
18:00 +30°C° 0 mm 3 m/s 756 mm Hg 51%
19:00 +29°C° 0 mm 3 m/s 757 mm Hg 55%
20:00 +28°C° 0 mm 2 m/s 757 mm Hg 57%
21:00 +27°C° 0 mm 2 m/s 757 mm Hg 60%
22:00 +26°C° 0 mm 2 m/s 757 mm Hg 62%
23:00 +26°C° 0 mm 2 m/s 757 mm Hg 63%

Domani, 7 Agosto, Venerdi

Tempo Temperatura Precipitazioni Vento Pressione Umidità
00:00 +25°C° 0 mm 2 m/s 757 mm Hg 64%
01:00 +24°C° 0 mm 2 m/s 758 mm Hg 65%
02:00 +24°C° 0 mm 2 m/s 757 mm Hg 66%
03:00 +24°C° 0 mm 2 m/s 757 mm Hg 67%
04:00 +23°C° 0 mm 2 m/s 757 mm Hg 68%
05:00 +24°C° 0 mm 2 m/s 757 mm Hg 65%
06:00 +25°C° 0 mm 2 m/s 757 mm Hg 62%
07:00 +25°C° 0 mm 2 m/s 758 mm Hg 59%
08:00 +28°C° 0 mm 2 m/s 758 mm Hg 51%
09:00 +30°C° 0 mm 2 m/s 758 mm Hg 43%
10:00 +32°C° 0 mm 2 m/s 758 mm Hg 36%
11:00 +34°C° 0 mm 2 m/s 758 mm Hg 34%
12:00 +35°C° 0 mm 2 m/s 758 mm Hg 32%
13:00 +36°C° 0 mm 3 m/s 758 mm Hg 31%
14:00 +35°C° 0 mm 3 m/s 758 mm Hg 34%
15:00 +34°C° 0 mm 4 m/s 758 mm Hg 36%
16:00 +33°C° 0 mm 4 m/s 757 mm Hg 39%
17:00 +33°C° 0 mm 3 m/s 757 mm Hg 42%
18:00 +31°C° 0 mm 2 m/s 758 mm Hg 46%
19:00 +30°C° 0 mm 2 m/s 758 mm Hg 49%
20:00 +29°C° 0 mm 2 m/s 758 mm Hg 51%
21:00 +28°C° 0 mm 2 m/s 758 mm Hg 53%
22:00 +27°C° 0 mm 2 m/s 758 mm Hg 56%
23:00 +27°C° 0 mm 2 m/s 758 mm Hg 55%

Dopodomani, 8 Agosto, Sabato

Tempo Temperatura Precipitazioni Vento Pressione Umidità
00:00 +26°C° 0 mm 2 m/s 758 mm Hg 55%
01:00 +26°C° 0 mm 3 m/s 758 mm Hg 55%
02:00 +25°C° 0 mm 3 m/s 758 mm Hg 56%
03:00 +25°C° 0 mm 3 m/s 758 mm Hg 57%
04:00 +24°C° 0 mm 3 m/s 758 mm Hg 58%
05:00 +25°C° 0 mm 3 m/s 758 mm Hg 56%
06:00 +26°C° 0 mm 3 m/s 758 mm Hg 55%
07:00 +26°C° 0 mm 3 m/s 758 mm Hg 53%
08:00 +29°C° 0 mm 3 m/s 758 mm Hg 47%
09:00 +31°C° 0 mm 3 m/s 758 mm Hg 41%
10:00 +34°C° 0 mm 3 m/s 758 mm Hg 34%
11:00 +36°C° 0 mm 3 m/s 758 mm Hg 32%
12:00 +37°C° 0 mm 3 m/s 757 mm Hg 30%
13:00 +38°C° 0 mm 3 m/s 757 mm Hg 28%
14:00 +37°C° 0 mm 3 m/s 757 mm Hg 31%
15:00 +36°C° 0 mm 4 m/s 757 mm Hg 34%
16:00 +35°C° 0 mm 4 m/s 756 mm Hg 37%
17:00 +34°C° 0 mm 4 m/s 757 mm Hg 40%
18:00 +33°C° 0 mm 4 m/s 757 mm Hg 42%
19:00 +31°C° 0 mm 3 m/s 757 mm Hg 45%
20:00 +30°C° 0 mm 3 m/s 757 mm Hg 48%
21:00 +29°C° 0 mm 3 m/s 757 mm Hg 51%
22:00 +28°C° 0 mm 3 m/s 757 mm Hg 55%
23:00 +27°C° 0 mm 3 m/s 757 mm Hg 56%

9 Agosto, Domenica

Tempo Temperatura Precipitazioni Vento Pressione Umidità
00:00 +27°C° 0 mm 3 m/s 757 mm Hg 58%
01:00 +26°C° 0 mm 2 m/s 757 mm Hg 60%
02:00 +26°C° 0 mm 2 m/s 757 mm Hg 62%
03:00 +25°C° 0 mm 2 m/s 756 mm Hg 63%
04:00 +25°C° 0 mm 2 m/s 756 mm Hg 64%
05:00 +25°C° 0 mm 2 m/s 756 mm Hg 62%
06:00 +26°C° 0 mm 2 m/s 757 mm Hg 60%
07:00 +27°C° 0 mm 2 m/s 757 mm Hg 57%
08:00 +29°C° 0 mm 2 m/s 757 mm Hg 51%
09:00 +32°C° 0 mm 1 m/s 757 mm Hg 44%
10:00 +34°C° 0 mm 1 m/s 757 mm Hg 37%
11:00 +36°C° 0 mm 2 m/s 757 mm Hg 35%
12:00 +37°C° 0 mm 2 m/s 757 mm Hg 32%
13:00 +38°C° 0 mm 3 m/s 757 mm Hg 29%
14:00 +37°C° 0 mm 3 m/s 756 mm Hg 33%
15:00 +36°C° 0 mm 4 m/s 756 mm Hg 36%
16:00 +35°C° 0 mm 5 m/s 756 mm Hg 40%
17:00 +34°C° 0 mm 4 m/s 756 mm Hg 43%
18:00 +33°C° 0 mm 3 m/s 756 mm Hg 47%
19:00 +31°C° 0 mm 2 m/s 756 mm Hg 50%
20:00 +30°C° 0 mm 1 m/s 757 mm Hg 55%
21:00 +28°C° 0 mm 1 m/s 757 mm Hg 60%
22:00 +25°C° 0 mm 0 m/s 757 mm Hg 64%
23:00 +27°C° 0 mm 1 m/s 757 mm Hg 65%

10 Agosto, Lunedi

Tempo Temperatura Precipitazioni Vento Pressione Umidità
00:00 +27°C° 0 mm 1 m/s 757 mm Hg 66%
01:00 +26°C° 0 mm 1 m/s 757 mm Hg 66%
02:00 +26°C° 0 mm 1 m/s 757 mm Hg 65%
03:00 +26°C° 0 mm 1 m/s 757 mm Hg 64%
04:00 +26°C° 0 mm 1 m/s 756 mm Hg 63%
05:00 +26°C° 0 mm 2 m/s 756 mm Hg 59%
06:00 +27°C° 0 mm 2 m/s 757 mm Hg 56%
07:00 +28°C° 0 mm 2 m/s 757 mm Hg 52%
08:00 +30°C° 0 mm 2 m/s 757 mm Hg 47%
09:00 +32°C° 0 mm 2 m/s 757 mm Hg 41%
10:00 +35°C° 0 mm 2 m/s 757 mm Hg 36%
11:00 +36°C° 0 mm 2 m/s 757 mm Hg 36%
12:00 +36°C° 0 mm 3 m/s 757 mm Hg 35%
13:00 +37°C° 0 mm 4 m/s 757 mm Hg 35%
14:00 +36°C° 0 mm 4 m/s 757 mm Hg 37%
15:00 +36°C° 0 mm 4 m/s 756 mm Hg 38%
16:00 +36°C° 0 mm 4 m/s 756 mm Hg 40%
17:00 +34°C° 0 mm 3 m/s 757 mm Hg 46%
18:00 +31°C° 0 mm 2 m/s 757 mm Hg 52%
19:00 +30°C° 0 mm 2 m/s 757 mm Hg 58%
20:00 +29°C° 0 mm 1 m/s 757 mm Hg 61%
21:00 +28°C° 0 mm 1 m/s 758 mm Hg 63%
22:00 +25°C° 0 mm 0 m/s 758 mm Hg 65%
23:00 +27°C° 0 mm 1 m/s 758 mm Hg 65%

11 Agosto, Martedi

Tempo Temperatura Precipitazioni Vento Pressione Umidità
00:00 +27°C° 0 mm 1 m/s 758 mm Hg 65%
01:00 +27°C° 0 mm 1 m/s 758 mm Hg 64%
02:00 +26°C° 0 mm 1 m/s 758 mm Hg 66%
03:00 +24°C° 0 mm 0 m/s 758 mm Hg 67%
04:00 +23°C° 0 mm 0 m/s 758 mm Hg 68%
05:00 +24°C° 0 mm 0 m/s 758 mm Hg 65%
06:00 +27°C° 0 mm 1 m/s 758 mm Hg 61%
07:00 +28°C° 0 mm 1 m/s 758 mm Hg 57%
08:00 +30°C° 0 mm 1 m/s 758 mm Hg 51%
09:00 +33°C° 0 mm 1 m/s 758 mm Hg 44%
10:00 +35°C° 0 mm 1 m/s 758 mm Hg 38%
11:00 +36°C° 0 mm 2 m/s 758 mm Hg 38%
12:00 +37°C° 0 mm 3 m/s 758 mm Hg 37%
13:00 +37°C° 0 mm 3 m/s 758 mm Hg 37%
14:00 +36°C° 0 mm 4 m/s 758 mm Hg 39%
15:00 +36°C° 0 mm 4 m/s 758 mm Hg 41%
16:00 +35°C° 0 mm 4 m/s 757 mm Hg 43%
17:00 +34°C° 0 mm 3 m/s 757 mm Hg 47%
18:00 +32°C° 0 mm 2 m/s 757 mm Hg 50%
19:00 +30°C° 0 mm 2 m/s 757 mm Hg 53%
20:00 +29°C° 0.1 mm 2 m/s 758 mm Hg 56%
21:00 +29°C° 0.1 mm 1 m/s 758 mm Hg 59%
22:00 +28°C° 0.1 mm 1 m/s 758 mm Hg 62%
23:00 +27°C° 0 mm 1 m/s 758 mm Hg 64%
Mostrare altro